Location: *
(40.7765°S, 106.5327°E)
Time: 08:28:31
(UTC+00:00)

Cosmos 1939 Rocket - Visible Passes

Search period start: 06 October 2022 00:00
Search period end: 16 October 2022 00:00
Orbit: 530 x 578 km, 97.4° (Epoch: 05 October)

Date Brightness Start Highest point End Pass type
(mag) Time Alt. Az. Time Alt. Az. Time Alt. Az.
06 Oct 6.6 11:52:49 10° SW 11:54:05 11° WSW 11:55:19 10° W visible
06 Oct 4.9 21:01:17 10° NE 21:04:43 31° ESE 21:08:12 10° S visible
07 Oct 6.5 11:49:31 10° SW 11:51:08 12° WSW 11:52:44 10° W visible
07 Oct 5.0 20:58:23 10° NE 21:01:45 29° ESE 21:05:09 10° S visible
08 Oct 6.4 11:46:17 10° SW 11:48:11 13° WSW 11:50:05 10° W visible
08 Oct 5.2 20:55:30 10° NE 20:58:46 27° ESE 21:02:06 10° SSE visible
09 Oct 6.3 11:43:05 10° SSW 11:45:14 14° WSW 11:47:22 10° W visible
09 Oct 5.3 20:52:36 10° NE 20:55:48 25° ESE 20:59:03 10° SSE visible
10 Oct 6.3 11:39:55 10° SSW 11:42:16 15° WSW 11:44:37 10° W visible
10 Oct 5.5 20:49:43 10° ENE 20:52:49 23° ESE 20:55:58 10° SSE visible
11 Oct 6.2 11:36:45 10° SSW 11:39:18 16° WSW 11:41:50 10° WNW visible
11 Oct 5.6 20:46:50 10° ENE 20:49:50 22° ESE 20:52:53 10° SSE visible
12 Oct 6.2 11:33:37 10° SSW 11:36:19 17° WSW 11:39:02 10° WNW visible
12 Oct 5.7 20:43:58 10° ENE 20:46:51 20° ESE 20:49:47 10° SSE visible
13 Oct 5.9 20:41:05 10° ENE 20:43:51 19° ESE 20:46:40 10° SSE visible
14 Oct 6.0 20:38:13 10° ENE 20:40:51 18° ESE 20:43:32 10° SSE visible
15 Oct 6.1 20:35:23 10° ENE 20:37:52 16° ESE 20:40:23 10° SSE visible
